Tracking 29967 objects as of 5-Dec-2024
HD Live streaming from Space Station
objects crossing your sky now

STARLINK-30857

Track STARLINK-30857 now!
10-day predictions
STARLINK-30857 is classified as:


NORAD ID: 58595
Int'l Code: 2023-200G
Perigee: 565.1 km
Apogee: 567.3 km
Inclination: 43.0 °
Period: 95.8 minutes
Semi major axis: 6937 km
RCS: Unknown
Launch date: December 19, 2023
Source: United States (US)
Launch site: AIR FORCE EASTERN TEST RANGE (AFETR)
Your satellite tracking list
Your tracking list is empty




NASA's NSSDC Master Catalog

Two Line Element Set (TLE):
1 58595U 23200G   24340.47496666 -.00000966  00000-0 -56470-4 0  9999
2 58595  43.0058 145.7468 0001615 270.0910  89.9748 15.02536887 54516
Source of the keplerian elements: AFSPC